| time (UTC) | temp F | wind direction | speed knots | gust knots | rain 1hr in | rain 24hr in | rain mn in | humidity % | barometer mb |
| 20260508144552 | 67 | 259 | 5.2 | 7.8 | 0.00 | 0.25 | 0.03 | 63 | 1012.1 |
| 20260508143051 | 66 | 257 | 5.2 | 7.8 | 0.00 | 0.25 | 0.03 | 66 | 1012.0 |
| 20260508141614 | 67 | 221 | 3.5 | 7.0 | 0.00 | 0.25 | 0.03 | 66 | 1012.2 |
| 20260508140051 | 66 | 239 | 2.6 | 7.8 | 0.00 | 0.25 | 0.03 | 68 | 1012.1 |
| 20260508134612 | 66 | 230 | 4.3 | 8.7 | 0.00 | 0.31 | 0.03 | 69 | 1012.3 |
| 20260508133100 | 66 | 227 | 5.2 | 7.8 | 0.00 | 0.31 | 0.03 | 69 | 1012.3 |
| 20260508131554 | 67 | 234 | 2.6 | 6.1 | 0.00 | 0.31 | 0.03 | 68 | 1012.5 |
| 20260508130053 | 66 | 272 | 2.6 | 5.2 | 0.00 | 0.31 | 0.03 | 68 | 1012.5 |
| 20260508124559 | 66 | 247 | 1.7 | 5.2 | 0.00 | 0.35 | 0.03 | 67 | 1012.7 |
| 20260508123052 | 65 | 192 | 1.7 | 5.2 | 0.00 | 0.35 | 0.03 | 67 | 1012.8 |
| 20260508121559 | 65 | 105 | 0.9 | 7.0 | 0.00 | 0.35 | 0.03 | 71 | 1012.9 |
| 20260508120052 | 63 | 56 | 1.7 | 7.8 | 0.00 | 0.35 | 0.03 | 75 | 1012.5 |
| 20260508114551 | 62 | 0 | 1.7 | 5.2 | 0.00 | 0.35 | 0.03 | 77 | 1013.0 |
| 20260508113107 | 60 | 0 | 0.0 | 1.7 | 0.01 | 0.35 | 0.03 | 80 | 1013.5 |
| 20260508111601 | 60 | 0 | 0.0 | 5.2 | 0.03 | 0.35 | 0.03 | 82 | 1013.6 |
| 20260508110059 | 60 | 135 | 0.9 | 3.5 | 0.03 | 0.35 | 0.03 | 82 | 1013.7 |
| 20260508104554 | 60 | 0 | 0.0 | 2.6 | 0.03 | 0.34 | 0.03 | 80 | 1014.0 |
| 20260508103052 | 61 | 0 | 0.0 | 2.6 | 0.02 | 0.33 | 0.02 | 79 | 1014.2 |
| 20260508101552 | 61 | 0 | 0.0 | 2.6 | 0.00 | 0.32 | 0.00 | 77 | 1014.1 |
| 20260508100054 | 61 | 0 | 0.0 | 5.2 | 0.00 | 0.31 | 0.00 | 77 | 1014.1 |
| 20260508094555 | 62 | 110 | 4.3 | 7.8 | 0.00 | 0.31 | 0.00 | 75 | 1014.0 |
| 20260508093056 | 63 | 104 | 1.7 | 3.5 | 0.00 | 0.31 | 0.00 | 74 | 1014.1 |
| 20260508091556 | 62 | 88 | 0.0 | 0.9 | 0.00 | 0.31 | 0.00 | 75 | 1014.1 |
| 20260508090053 | 62 | 0 | 0.0 | 2.6 | 0.00 | 0.31 | 0.00 | 77 | 1013.8 |
| 20260508084558 | 61 | 90 | 1.7 | 3.5 | 0.00 | 0.31 | 0.00 | 77 | 1013.7 |
| 20260508083108 | 61 | 88 | 0.9 | 6.1 | 0.00 | 0.31 | 0.00 | 78 | 1013.4 |
| 20260508081605 | 61 | 104 | 0.0 | 1.7 | 0.00 | 0.31 | 0.00 | 78 | 1013.4 |
| 20260508080054 | 61 | 104 | 1.7 | 5.2 | 0.00 | 0.31 | 0.00 | 78 | 1013.5 |
| 20260508074601 | 61 | 112 | 1.7 | 5.2 | 0.00 | 0.31 | 0.00 | 78 | 1012.9 |
| 20260508073057 | 62 | 107 | 0.9 | 5.2 | 0.00 | 0.31 | 0.00 | 77 | 1012.5 |
| 20260508071555 | 62 | 114 | 1.7 | 5.2 | 0.00 | 0.31 | 0.00 | 77 | 1012.4 |
| 20260508070057 | 62 | 120 | 1.7 | 5.2 | 0.00 | 0.31 | 0.00 | 78 | 1012.5 |
| 20260508064555 | 61 | 93 | 1.7 | 6.1 | 0.00 | 0.31 | 0.00 | 80 | 1012.3 |
| 20260508063050 | 60 | 88 | 2.6 | 6.1 | 0.00 | 0.31 | 0.00 | 82 | 1012.3 |
| 20260508061552 | 58 | 100 | 1.7 | 3.5 | 0.00 | 0.31 | 0.00 | 84 | 1012.1 |
| 20260508060053 | 58 | 104 | 1.7 | 6.1 | 0.00 | 0.31 | 0.00 | 84 | 1011.9 |
| 20260508054552 | 57 | 101 | 2.6 | 6.1 | 0.00 | 0.31 | 0.00 | 84 | 1011.7 |
| 20260508053055 | 57 | 98 | 2.6 | 5.2 | 0.00 | 0.31 | 0.00 | 85 | 1011.6 |
| 20260508051556 | 57 | 105 | 1.7 | 3.5 | 0.00 | 0.31 | 0.00 | 85 | 1011.8 |
| 20260508050052 | 57 | 76 | 1.7 | 3.5 | 0.00 | 0.31 | 0.00 | 85 | 1011.5 |
| 20260508044554 | 57 | 82 | 0.9 | 3.5 | 0.00 | 0.31 | 0.00 | 85 | 1011.3 |
| 20260508043105 | 57 | 81 | 0.0 | 2.6 | 0.00 | 0.31 | 0.00 | 85 | 1011.3 |
| 20260508041552 | 57 | 0 | 0.0 | 1.7 | 0.00 | 0.31 | 0.00 | 85 | 1011.2 |
| 20260508040057 | 57 | 0 | 0.0 | 0.9 | 0.00 | 0.31 | 0.00 | 85 | 1011.2 |
| 20260508034553 | 57 | 0 | 0.0 | 2.6 | 0.00 | 0.31 | 0.00 | 85 | 1010.8 |
| 20260508033054 | 57 | 0 | 0.0 | 1.7 | 0.00 | 0.31 | 0.00 | 85 | 1010.9 |
| 20260508031552 | 57 | 83 | 1.7 | 2.6 | 0.00 | 0.31 | 0.00 | 85 | 1011.1 |
| 20260508030049 | 57 | 82 | 0.0 | 3.5 | 0.00 | 0.31 | 0.00 | 85 | 1011.5 |
| 20260508024552 | 57 | 82 | 1.7 | 5.2 | 0.00 | 0.31 | 0.00 | 86 | 1011.5 |
| 20260508023049 | 56 | 93 | 0.9 | 3.5 | 0.00 | 0.31 | 0.00 | 86 | 1011.5 |
| 20260508021552 | 57 | 92 | 1.7 | 5.2 | 0.00 | 0.31 | 0.00 | 86 | 1011.7 |
| 20260508020053 | 57 | 101 | 1.7 | 3.5 | 0.00 | 0.31 | 0.00 | 86 | 1011.7 |
| 20260508014552 | 56 | 103 | 1.7 | 3.5 | 0.00 | 0.31 | 0.00 | 86 | 1011.7 |
| 20260508013049 | 57 | 103 | 1.7 | 3.5 | 0.00 | 0.31 | 0.00 | 86 | 1011.9 |
| 20260508011552 | 57 | 100 | 1.7 | 3.5 | 0.00 | 0.31 | 0.00 | 86 | 1012.1 |
| 20260508010050 | 57 | 104 | 1.7 | 3.5 | 0.00 | 0.31 | 0.00 | 86 | 1012.3 |
| 20260508004549 | 57 | 108 | 2.6 | 6.1 | 0.00 | 0.31 | 0.00 | 86 | 1012.4 |
| 20260508003052 | 57 | 104 | 2.6 | 6.1 | 0.00 | 0.31 | 0.00 | 86 | 1012.8 |
| 20260508001551 | 57 | 101 | 0.9 | 3.5 | 0.00 | 0.31 | 0.00 | 86 | 1012.9 |
| 20260508000051 | 57 | 108 | 0.9 | 2.6 | 0.00 | 0.31 | 0.00 | 86 | 1013.1 |
| 20260507234550 | 57 | 108 | 1.7 | 2.6 | 0.00 | 0.31 | 0.00 | 86 | 1013.1 |
| 20260507233053 | 58 | 113 | 1.7 | 3.5 | 0.00 | 0.31 | 0.00 | 86 | 1013.2 |
| 20260507231554 | 58 | 97 | 1.7 | 3.5 | 0.00 | 0.31 | 0.00 | 86 | 1013.2 |
| 20260507224556 | 58 | 89 | 0.9 | 3.5 | 0.00 | 0.31 | 0.00 | 86 | 1013.3 |
| 20260507223057 | 58 | 90 | 0.9 | 3.5 | 0.00 | 0.31 | 0.00 | 86 | 1013.4 |
| 20260507221556 | 59 | 94 | 1.7 | 3.5 | 0.00 | 0.31 | 0.00 | 86 | 1013.3 |
| 20260507220054 | 59 | 148 | 0.9 | 2.6 | 0.00 | 0.31 | 0.00 | 86 | 1013.0 |
| 20260507214616 | 59 | 122 | 0.9 | 2.6 | 0.00 | 0.31 | 0.31 | 86 | 1012.9 |
| 20260507213106 | 58 | 120 | 1.7 | 3.5 | 0.00 | 0.31 | 0.31 | 86 | 1012.9 |
| 20260507211606 | 59 | 130 | 1.7 | 6.1 | 0.00 | 0.31 | 0.31 | 85 | 1013.0 |
| 20260507210056 | 58 | 112 | 1.7 | 5.2 | 0.00 | 0.31 | 0.31 | 85 | 1012.9 |
| 20260507204606 | 59 | 121 | 1.7 | 3.5 | 0.00 | 0.31 | 0.31 | 85 | 1012.9 |
| 20260507203059 | 59 | 109 | 0.9 | 6.1 | 0.00 | 0.31 | 0.31 | 85 | 1012.7 |
| 20260507201553 | 59 | 162 | 0.9 | 6.1 | 0.00 | 0.31 | 0.31 | 85 | 1012.7 |
| 20260507200054 | 59 | 194 | 1.7 | 6.1 | 0.00 | 0.31 | 0.31 | 85 | 1012.7 |
| 20260507194633 | 59 | 0 | 0.9 | 6.1 | 0.00 | 0.31 | 0.31 | 85 | 1012.3 |
| 20260507193053 | 59 | 159 | 0.9 | 4.3 | 0.00 | 0.31 | 0.31 | 85 | 1011.9 |
| 20260507191555 | 58 | 0 | 1.7 | 6.1 | 0.00 | 0.31 | 0.31 | 85 | 1011.7 |
| 20260507190051 | 59 | 161 | 2.6 | 7.0 | 0.00 | 0.31 | 0.31 | 85 | 1011.6 |
| 20260507184605 | 59 | 146 | 1.7 | 10.4 | 0.03 | 0.31 | 0.31 | 85 | 1011.5 |
| 20260507183055 | 60 | 120 | 2.6 | 7.0 | 0.10 | 0.31 | 0.31 | 85 | 1011.3 |
| 20260507181551 | 59 | 109 | 4.3 | 9.6 | 0.13 | 0.31 | 0.31 | 84 | 1011.2 |
| 20260507180057 | 60 | 123 | 3.5 | 9.6 | 0.14 | 0.31 | 0.31 | 84 | 1011.0 |
| 20260507174555 | 60 | 82 | 4.3 | 9.6 | 0.14 | 0.28 | 0.28 | 83 | 1010.9 |
| 20260507173051 | 62 | 102 | 2.6 | 5.2 | 0.09 | 0.21 | 0.21 | 83 | 1010.8 |
| 20260507171554 | 62 | 145 | 0.0 | 3.5 | 0.07 | 0.18 | 0.18 | 82 | 1010.8 |
| 20260507170052 | 62 | 0 | 0.0 | 1.7 | 0.06 | 0.15 | 0.15 | 82 | 1010.6 |
| 20260507164549 | 62 | 0 | 0.0 | 4.3 | 0.03 | 0.13 | 0.13 | 81 | 1010.7 |
| 20260507163106 | 63 | 217 | 1.7 | 4.3 | 0.02 | 0.11 | 0.11 | 81 | 1010.3 |
| 20260507161555 | 63 | 219 | 1.7 | 5.2 | 0.00 | 0.10 | 0.10 | 81 | 1010.3 |
| 20260507160052 | 63 | 232 | 1.7 | 3.5 | 0.00 | 0.09 | 0.09 | 82 | 1010.3 |
| 20260507154559 | 62 | 280 | 2.6 | 7.0 | 0.00 | 0.09 | 0.09 | 82 | 1010.1 |
| 20260507153054 | 63 | 273 | 5.2 | 8.7 | 0.00 | 0.09 | 0.09 | 83 | 1010.0 |
| 20260507151554 | 64 | 265 | 6.1 | 11.3 | 0.00 | 0.09 | 0.09 | 83 | 1010.1 |
| 20260507150057 | 65 | 213 | 3.5 | 7.0 | 0.00 | 0.09 | 0.09 | 84 | 1010.1 |